Yaogan 39 01 zu 01 xing

operational
NORAD ID: 57727 Int'l Des: 2023-130 Owner: ZZB Country: CN Constellation: yaogan
LEOCIRCULAR

About Yaogan 39 01 zu 01 xing

Description loading...

Live Position

Loading 3D Globe...

Upcoming Passes

Altitude History

Altitude vs Time

uPlot chart will show altitude changes over time

Two-Line Element Set

1 57727U 23130A 26049.49109641 .00011553 00000-0 48106-3 0 9999
2 57727 35.0023 155.1828 0003507 161.9361 198.1479 15.22947933137606
Epoch: Feb 18, 2026 • Age: 13 hours

Current Status

Altitude 497.2 km
Velocity 7.62 km/s
Sub-Earth Point 27.52°N, 41.48°E
Launch Date Aug 31, 2023
Age 2.4 years
Type military

Technical Details

Classification Payload
Mass 300.00 kg
Dry Mass 300.00 kg
Total Mass 300.00 kg
Length 2.50 m
Diameter 2.50 m
Span 5.00 m
Shape Box + 2 Pan
Manufacturer DFHZ
Phase Status In Orbit
Owner/State ZZB/CN

Large Constellations

Loading constellations...